282  
ASUS44 KSHV 240710  
RWRSHV  
 
WEATHER ROUNDUP FOR THE FOUR STATE AREA  
NATIONAL WEATHER SERVICE SHREVEPORT LA  
200 AM CDT SUN MAR 24 2019  
 
NOTE: "FAIR" INDICATES FEW OR NO CLOUDS BELOW 12000 FEET  
WITH NO SIGNIFICANT WEATHER AND/OR S TO VISIBILITY
.  
 
!LAZ001-LAZ014-TXZ097-240800  
SHREVEPORT...MONROE...TEXARKANA RADIOS  
 
CITY SKY/WX TMP DP RH WIND PRES REMARKS
 
SHREVEPORT CLOUDY 63 51 65 S8 30.09F  
MONROE MOCLDY 63 47 55 S8 30.14F  
NATCHITOCHES CLOUDY 61 51 69 SE3 30.14S  
TEXARKANA CLOUDY 62 53 72 S9 30.07R  

 
 
!LAZ001-LAZ014-TXZ097-240800  
OTHER LOCATIONS...  
 
CITY SKY/WX TMP DP RH WIND PRES REMARKS
 
DOWNTOWN SHV CLOUDY 65 51 60 S10 30.10F  
BOSSIER CITY N/A 63 50 63 S9 30.09F  
RUSTON CLOUDY 63 45 50 CALM 30.17R  
LITTLE ROCK CLOUDY 54 48 80 CALM 30.11S  
EL DORADO MOCLDY 63 46 54 S7 30.10F  
JACKSON N/A 53 45 74 SE6 30.19R  
NEW ORLEANS N/A 57 50 77 S3 30.17F  
HOUSTON CLOUDY 59 59 100 E3 30.11S  
LUFKIN CLOUDY 60 54 80 S7 30.11R  
TYLER CLOUDY 62 56 80 S13 30.07S  
DAL FT WORTH CLOUDY 66 58 75 S15 30.01S  

 
 
!TXZ136-TXZ165-240800  
TYLER...LUFKIN RADIOS  
 
CITY SKY/WX TMP DP RH WIND PRES REMARKS
 
TYLER CLOUDY 62 56 80 S13 30.07S  
GILMER NOT AVBL  
LONGVIEW CLOUDY 63 56 78 S12 30.08R  
LUFKIN CLOUDY 60 54 80 S7 30.11R  

 
 
!TXZ136-TXZ165-240800  
OTHER LOCATIONS...  
 
CITY SKY/WX TMP DP RH WIND PRES REMARKS
 
NACOGDOCHES CLOUDY 62 54 74 S10 30.12R  
BEAUMONT N/A 62 59 90 SE5 30.12F  
HOUSTON CLOUDY 59 59 100 E3 30.11S  
COLLEGE STN CLEAR 63 60 90 SE9 30.09R  
AUSTIN CLOUDY 66 62 87 S8 30.07S  
DAL FT WORTH CLOUDY 66 58 75 S15 30.01S  
TEXARKANA CLOUDY 62 53 72 S9 30.07R  
SHREVEPORT CLOUDY 63 51 65 S8 30.09F  
FORT POLK CLOUDY 60 52 73 SE8 30.13F  
LAKE CHARLES N/A 56 53 90 SE3 30.15S  

 
 
 
CLICK HERE TO GO TO PREVIOUS BULLETINS.

The Nexlab LA Page
The Nexlab TX Page
The Nexlab AR Page
The Nexlab OK Page Main Text Page